TimeEDT,TemperatureF,Dew PointF,Humidity,Sea Level PressureIn,VisibilityMPH,Wind Direction,Wind SpeedMPH,Gust SpeedMPH,PrecipitationIn,Events,Conditions,WindDirDegrees,DateUTC
12:53 AM,48.9,37.9,66,29.58,10.0,WSW,10.4,16.1,N/A,,Overcast,250,2012-11-01 04:53:00
1:53 AM,48.9,37.0,64,29.57,10.0,WSW,5.8,-,N/A,,Mostly Cloudy,250,2012-11-01 05:53:00
2:53 AM,48.0,37.0,66,29.56,10.0,West,5.8,-,N/A,,Scattered Clouds,260,2012-11-01 06:53:00
3:53 AM,48.0,37.0,66,29.56,-9999.0,Variable,5.8,-,N/A,,Clear,0,2012-11-01 07:53:00
4:53 AM,48.2,37.4,66,29.56,-9999.0,Variable,4.6,-,N/A,,Overcast,0,2012-11-01 08:53:00
5:12 AM,48.2,37.4,66,29.56,-9999.0,Variable,4.6,-,N/A,,Overcast,0,2012-11-01 09:12:00
5:53 AM,48.0,37.0,66,29.57,-9999.0,West,4.6,-,N/A,,Overcast,260,2012-11-01 09:53:00
6:46 AM,48.2,37.4,66,29.56,-9999.0,West,8.1,-,N/A,,Overcast,260,2012-11-01 10:46:00
6:53 AM,48.0,37.0,66,29.57,-9999.0,Variable,5.8,-,N/A,,Overcast,0,2012-11-01 10:53:00
7:00 AM,48.2,37.4,66,29.56,10.0,Variable,5.8,-,N/A,,Mostly Cloudy,0,2012-11-01 11:00:00
7:53 AM,46.4,37.4,71,29.57,10.0,West,8.1,-,N/A,,Mostly Cloudy,260,2012-11-01 11:53:00
8:00 AM,46.4,37.4,71,29.57,-9999.0,Variable,5.8,-,N/A,,Overcast,0,2012-11-01 12:00:00
8:19 AM,46.4,37.4,71,29.58,-9999.0,West,5.8,-,N/A,,Scattered Clouds,260,2012-11-01 12:19:00
8:53 AM,48.0,37.9,68,29.58,-9999.0,Variable,6.9,-,N/A,,Clear,0,2012-11-01 12:53:00
9:53 AM,50.0,39.0,66,29.58,10.0,Variable,4.6,-,N/A,,Mostly Cloudy,0,2012-11-01 13:53:00
10:53 AM,52.0,37.9,59,29.58,10.0,WSW,6.9,-,N/A,,Scattered Clouds,240,2012-11-01 14:53:00
11:53 AM,54.0,39.0,57,29.57,10.0,WSW,9.2,-,N/A,,Mostly Cloudy,240,2012-11-01 15:53:00
12:53 PM,55.0,39.0,55,29.55,10.0,SW,9.2,-,N/A,,Mostly Cloudy,220,2012-11-01 16:53:00
1:53 PM,55.0,39.9,57,29.54,10.0,SW,8.1,-,N/A,,Mostly Cloudy,230,2012-11-01 17:53:00
2:49 PM,53.6,39.2,58,29.54,10.0,SW,6.9,-,N/A,,Overcast,220,2012-11-01 18:49:00
2:53 PM,54.0,39.9,59,29.54,10.0,SW,9.2,-,N/A,,Overcast,220,2012-11-01 18:53:00
3:53 PM,54.0,39.9,59,29.54,10.0,WSW,9.2,-,N/A,,Overcast,240,2012-11-01 19:53:00
4:00 PM,53.6,39.2,58,29.54,-9999.0,SW,6.9,-,N/A,,Overcast,230,2012-11-01 20:00:00
4:07 PM,53.6,41.0,62,29.54,10.0,WSW,9.2,-,N/A,,Overcast,240,2012-11-01 20:07:00
4:53 PM,54.0,39.0,57,29.54,10.0,West,8.1,-,N/A,,Overcast,260,2012-11-01 20:53:00
5:53 PM,53.1,39.0,59,29.55,10.0,West,6.9,-,N/A,,Overcast,260,2012-11-01 21:53:00
6:53 PM,53.1,39.9,61,29.57,10.0,West,5.8,-,N/A,,Overcast,260,2012-11-01 22:53:00
7:53 PM,53.1,39.9,61,29.58,10.0,WSW,6.9,-,N/A,,Overcast,250,2012-11-01 23:53:00
8:53 PM,52.0,39.9,63,29.59,10.0,Variable,4.6,-,N/A,,Mostly Cloudy,0,2012-11-02 00:53:00
9:53 PM,52.0,39.0,61,29.59,10.0,WSW,6.9,-,N/A,,Overcast,250,2012-11-02 01:53:00
10:53 PM,52.0,39.0,61,29.59,10.0,West,8.1,-,N/A,,Overcast,260,2012-11-02 02:53:00
11:53 PM,51.1,39.0,63,29.59,10.0,West,6.9,-,N/A,,Overcast,260,2012-11-02 03:53:00